カタログに戻る

COSMOS 682

運用中軍事LEO
NORAD 7440·PAYLOAD·🇷🇺 Russia

打ち上げ Sep 19, 1974 から Plesetsk Cosmodrome

Loading…

次のパス (今後24時間)

TLE

最新Source: Space-Track

元期: Sep 14, 2026, 10:53 UTC

1 07440U 74072F   26257.45362810  .00000007  00000-0  15112-3 0  9996
2 07440  74.0358 152.2187 0009615 274.7460 257.9589 12.51300479374642

AllMySatでCOSMOS 682をリアルタイム追跡

Download on the App Store